LHX2X EDDM-EDDB

Flight info

Callsign LHX2X
Flight time 0h 52m
Altitude 29000
Route AKINI1Q/08L AKINI Y104 MAMOR L132 RUDNO T203 TIVDA DCT ETVIS DCT NAVEK DCT GAVLI/N0453F300 T203 ATGUP ATGUP1L
Aircraft A320/M-SDE3FGHIRWY/LB1

Departure

Time 2026-05-01 12:17
Airport Munich Airport (EDDM)

Arrival

Time 2026-05-01 13:09
Airport Berlin Brandenburg Airport (EDDB)
Time Latitude Longitude Altitude Speed Heading
2026-05-01 11:36 48.35598 11.80237 1486 ft 0 kts 83°
2026-05-01 12:01 48.35598 11.80235 1485 ft 2 kts 83°
2026-05-01 12:02 48.35595 11.80196 1481 ft 4 kts 83°
2026-05-01 12:02 48.35592 11.80164 1474 ft 4 kts 79°
2026-05-01 12:02 48.35582 11.80141 1474 ft 4 kts
2026-05-01 12:02 48.35558 11.80143 1479 ft 2 kts 353°
2026-05-01 12:03 48.35556 11.80144 1479 ft 0 kts 353°
2026-05-01 12:05 48.35583 11.80139 1473 ft 7 kts 353°
2026-05-01 12:05 48.35648 11.80118 1475 ft 12 kts 338°
2026-05-01 12:06 48.35723 11.80077 1477 ft 11 kts 352°
2026-05-01 12:06 48.35802 11.80036 1473 ft 8 kts 306°
2026-05-01 12:06 48.35807 11.79961 1485 ft 7 kts 264°
2026-05-01 12:06 48.35802 11.79899 1475 ft 7 kts 264°
2026-05-01 12:07 48.35798 11.79842 1482 ft 10 kts 264°
2026-05-01 12:07 48.35790 11.79741 1485 ft 9 kts 263°
2026-05-01 12:07 48.35784 11.79653 1485 ft 9 kts 263°
2026-05-01 12:07 48.35776 11.79548 1475 ft 11 kts 264°
2026-05-01 12:08 48.35771 11.79434 1485 ft 10 kts 283°
2026-05-01 12:08 48.35823 11.79390 1483 ft 8 kts 352°
2026-05-01 12:08 48.35875 11.79381 1485 ft 7 kts 353°
2026-05-01 12:08 48.35913 11.79361 1478 ft 5 kts 328°
2026-05-01 12:09 48.35943 11.79343 1485 ft 4 kts 346°
2026-05-01 12:09 48.35969 11.79337 1485 ft 5 kts 353°
2026-05-01 12:09 48.35999 11.79332 1482 ft 4 kts 353°
2026-05-01 12:09 48.36021 11.79328 1485 ft 3 kts 353°
2026-05-01 12:10 48.36047 11.79324 1481 ft 6 kts 353°
2026-05-01 12:10 48.36080 11.79143 1485 ft 13 kts 263°
2026-05-01 12:10 48.36070 11.79018 1485 ft 11 kts 263°
2026-05-01 12:11 48.36055 11.78818 1485 ft 8 kts 263°
2026-05-01 12:11 48.36047 11.78720 1476 ft 11 kts 263°
2026-05-01 12:11 48.36038 11.78587 1485 ft 14 kts 264°
2026-05-01 12:12 48.36025 11.78431 1481 ft 16 kts 263°
2026-05-01 12:12 48.36011 11.78247 1485 ft 18 kts 263°
2026-05-01 12:12 48.35997 11.78073 1485 ft 16 kts 263°
2026-05-01 12:12 48.35985 11.77915 1477 ft 14 kts 263°
2026-05-01 12:13 48.35974 11.77774 1479 ft 13 kts 263°
2026-05-01 12:13 48.35965 11.77649 1485 ft 11 kts 263°
2026-05-01 12:13 48.35956 11.77539 1485 ft 11 kts 263°
2026-05-01 12:13 48.35945 11.77392 1478 ft 18 kts 263°
2026-05-01 12:14 48.35930 11.77190 1485 ft 16 kts 264°
2026-05-01 12:14 48.35951 11.77038 1478 ft 15 kts 308°
2026-05-01 12:14 48.36031 11.76972 1483 ft 13 kts 355°
2026-05-01 12:14 48.36110 11.76960 1476 ft 11 kts 353°
2026-05-01 12:15 48.36178 11.76948 1483 ft 10 kts 353°
2026-05-01 12:15 48.36250 11.76938 1485 ft 7 kts 358°
2026-05-01 12:15 48.36288 11.76965 1475 ft 6 kts 54°
2026-05-01 12:15 48.36296 11.77021 1478 ft 3 kts 86°
2026-05-01 12:16 48.36300 11.77064 1485 ft 6 kts 84°
2026-05-01 12:16 48.36315 11.77302 1485 ft 54 kts 84°
2026-05-01 12:16 48.36386 11.78195 1485 ft 114 kts 83°
2026-05-01 12:16 48.36497 11.79627 1511 ft 158 kts 83°
2026-05-01 12:17 48.36623 11.81224 2135 ft 156 kts 84°
2026-05-01 12:17 48.36746 11.82861 2850 ft 158 kts 83°
2026-05-01 12:17 48.36875 11.84525 3484 ft 169 kts 84°
2026-05-01 12:17 48.37193 11.86346 3861 ft 194 kts 64°
2026-05-01 12:18 48.38082 11.88044 4263 ft 217 kts 41°
2026-05-01 12:18 48.39374 11.89281 4972 ft 226 kts 35°
2026-05-01 12:18 48.40783 11.90592 5363 ft 250 kts 36°
2026-05-01 12:18 48.42242 11.92159 5931 ft 262 kts 49°
2026-05-01 12:19 48.43340 11.94348 6782 ft 264 kts 58°
2026-05-01 12:19 48.44369 11.96667 7572 ft 267 kts 58°
2026-05-01 12:19 48.45405 11.98991 8522 ft 268 kts 56°
2026-05-01 12:19 48.46662 12.01048 9359 ft 274 kts 41°
2026-05-01 12:20 48.48273 12.02619 10226 ft 279 kts 27°
2026-05-01 12:20 48.50126 12.03557 11016 ft 284 kts 13°
2026-05-01 12:20 48.52111 12.03788 11818 ft 289 kts
2026-05-01 12:20 48.54129 12.03788 12613 ft 291 kts
2026-05-01 12:21 48.56162 12.03782 13423 ft 293 kts
2026-05-01 12:21 48.58209 12.03778 14201 ft 295 kts
2026-05-01 12:21 48.60273 12.03779 14885 ft 298 kts
2026-05-01 12:21 48.62308 12.04062 15516 ft 298 kts 15°
2026-05-01 12:22 48.64269 12.05067 16178 ft 299 kts 27°
2026-05-01 12:22 48.66169 12.06377 16832 ft 301 kts 27°
2026-05-01 12:22 48.68088 12.07695 17488 ft 304 kts 27°
2026-05-01 12:22 48.70024 12.09025 18137 ft 307 kts 27°
2026-05-01 12:23 48.71984 12.10369 18767 ft 310 kts 27°
2026-05-01 12:23 48.73958 12.11726 19337 ft 313 kts 27°
2026-05-01 12:23 48.75952 12.13101 19796 ft 320 kts 27°
2026-05-01 12:23 48.77996 12.14548 19916 ft 337 kts 27°
2026-05-01 12:24 48.80162 12.16110 20049 ft 353 kts 27°
2026-05-01 12:24 48.82425 12.17755 20175 ft 368 kts 27°
2026-05-01 12:24 48.84771 12.19464 20412 ft 379 kts 27°
2026-05-01 12:24 48.87164 12.21203 20842 ft 383 kts 27°
2026-05-01 12:25 48.89571 12.22942 21314 ft 386 kts 27°
2026-05-01 12:25 48.94473 12.26396 22281 ft 391 kts 26°
2026-05-01 12:25 48.96952 12.28125 22751 ft 393 kts 26°
2026-05-01 12:26 48.99411 12.29843 23211 ft 395 kts 26°
2026-05-01 12:26 49.04435 12.33376 24091 ft 400 kts 26°
2026-05-01 12:26 49.06968 12.35170 24453 ft 402 kts 26°
2026-05-01 12:27 49.09509 12.36974 24820 ft 404 kts 26°
2026-05-01 12:27 49.14634 12.40621 25533 ft 408 kts 26°
2026-05-01 12:28 49.19806 12.44304 26257 ft 412 kts 26°
2026-05-01 12:28 49.22379 12.46137 26604 ft 414 kts 26°
2026-05-01 12:28 49.27629 12.49882 27283 ft 418 kts 26°
2026-05-01 12:29 49.30274 12.51770 27601 ft 421 kts 26°
2026-05-01 12:29 49.32917 12.53718 27903 ft 423 kts 29°
2026-05-01 12:29 49.37743 12.58899 28605 ft 425 kts 37°
2026-05-01 12:30 49.42453 12.64324 29212 ft 428 kts 35°
2026-05-01 12:30 49.45003 12.66689 29492 ft 430 kts 26°
2026-05-01 12:30 49.47705 12.68674 29772 ft 432 kts 26°
2026-05-01 12:31 49.50416 12.70660 30151 ft 431 kts 26°
2026-05-01 12:31 49.53118 12.72647 30549 ft 430 kts 26°
2026-05-01 12:31 49.55814 12.74640 30895 ft 429 kts 26°
2026-05-01 12:31 49.58500 12.76631 31230 ft 428 kts 26°
2026-05-01 12:32 49.61185 12.78623 31555 ft 428 kts 26°
2026-05-01 12:32 49.66670 12.81944 32208 ft 428 kts 14°
2026-05-01 12:32 49.69609 12.82734 32379 ft 429 kts 10°
2026-05-01 12:33 49.75508 12.84091 32409 ft 428 kts 10°
2026-05-01 12:33 49.81401 12.85433 32411 ft 428 kts 10°
2026-05-01 12:34 49.87289 12.86784 32408 ft 428 kts 10°
2026-05-01 12:34 49.93139 12.88139 32402 ft 428 kts 10°
2026-05-01 12:35 49.99037 12.89504 32409 ft 429 kts 10°
2026-05-01 12:35 50.04941 12.90879 32406 ft 429 kts 10°
2026-05-01 12:36 50.10843 12.92249 32403 ft 429 kts 10°
2026-05-01 12:36 50.16747 12.93630 32406 ft 429 kts 10°
2026-05-01 12:37 50.22618 12.95013 32410 ft 431 kts
2026-05-01 12:37 50.28506 12.96737 32409 ft 430 kts 18°
2026-05-01 12:38 50.33941 13.00584 32408 ft 429 kts 27°
2026-05-01 12:38 50.39266 13.04810 32408 ft 428 kts 27°
2026-05-01 12:39 50.44538 13.08989 32407 ft 427 kts 27°
2026-05-01 12:39 50.49845 13.13199 32405 ft 427 kts 27°
2026-05-01 12:40 50.55144 13.17432 32410 ft 427 kts 27°
2026-05-01 12:40 50.60440 13.21688 32394 ft 427 kts 27°
2026-05-01 12:41 50.65689 13.25926 32409 ft 427 kts 27°
2026-05-01 12:41 50.70978 13.30191 32409 ft 427 kts 27°
2026-05-01 12:42 50.76267 13.34466 32410 ft 427 kts 27°
2026-05-01 12:42 50.81551 13.38757 32408 ft 427 kts 27°
2026-05-01 12:43 50.86803 13.43029 32411 ft 427 kts 27°
2026-05-01 12:43 50.92107 13.47277 32411 ft 427 kts 23°
2026-05-01 12:44 50.97851 13.49681 32412 ft 429 kts 11°
2026-05-01 12:45 51.09636 13.52847 32410 ft 430 kts 11°
2026-05-01 12:45 51.15493 13.54438 32410 ft 430 kts 11°
2026-05-01 12:46 51.21397 13.56039 32409 ft 430 kts 11°
2026-05-01 12:46 51.27299 13.57643 32407 ft 430 kts 11°
2026-05-01 12:47 51.33201 13.59243 32404 ft 430 kts 11°
2026-05-01 12:47 51.39064 13.60841 32404 ft 430 kts 11°
2026-05-01 12:48 51.44972 13.62454 32254 ft 432 kts 11°
2026-05-01 12:48 51.47956 13.63277 31139 ft 440 kts 11°
2026-05-01 12:48 51.51001 13.64120 29901 ft 447 kts 11°
2026-05-01 12:49 51.54076 13.64971 28813 ft 449 kts 11°
2026-05-01 12:49 51.57149 13.65828 27865 ft 447 kts 12°
2026-05-01 12:49 51.60195 13.66795 26969 ft 445 kts 13°
2026-05-01 12:49 51.63161 13.67856 26196 ft 440 kts 15°
2026-05-01 12:50 51.66123 13.68986 25446 ft 435 kts 15°
2026-05-01 12:50 51.69048 13.70125 24702 ft 430 kts 15°
2026-05-01 12:50 51.71945 13.71241 24000 ft 426 kts 15°
2026-05-01 12:50 51.74817 13.72326 23205 ft 422 kts 15°
2026-05-01 12:51 51.77660 13.73381 22461 ft 418 kts 15°
2026-05-01 12:51 51.80481 13.74420 21752 ft 414 kts 15°
2026-05-01 12:51 51.86045 13.76466 20389 ft 406 kts 15°
2026-05-01 12:52 51.88754 13.77466 19740 ft 403 kts 15°
2026-05-01 12:52 51.94230 13.79111 18419 ft 399 kts
2026-05-01 12:52 51.96991 13.79570 17657 ft 398 kts
2026-05-01 12:53 52.02439 13.80483 16018 ft 388 kts
2026-05-01 12:53 52.05081 13.80923 15487 ft 371 kts
2026-05-01 12:53 52.07563 13.81324 15361 ft 346 kts
2026-05-01 12:54 52.09876 13.81695 15240 ft 323 kts
2026-05-01 12:54 52.14135 13.82402 14521 ft 303 kts
2026-05-01 12:54 52.16219 13.82765 13968 ft 300 kts 10°
2026-05-01 12:55 52.20337 13.83477 12792 ft 294 kts
2026-05-01 12:55 52.22316 13.83809 12647 ft 278 kts
2026-05-01 12:55 52.24187 13.84096 12455 ft 265 kts
2026-05-01 12:56 52.26016 13.83882 12053 ft 264 kts 352°
2026-05-01 12:56 52.27750 13.83004 11609 ft 265 kts 342°
2026-05-01 12:56 52.29468 13.81931 11149 ft 263 kts 345°
2026-05-01 12:56 52.31239 13.81541 10669 ft 254 kts
2026-05-01 12:57 52.32900 13.82342 10193 ft 248 kts 32°
2026-05-01 12:57 52.34987 13.86524 9175 ft 240 kts 70°
2026-05-01 12:57 52.35581 13.89082 8633 ft 240 kts 69°
2026-05-01 12:58 52.36163 13.91593 8385 ft 233 kts 69°
2026-05-01 12:58 52.36739 13.94085 8244 ft 235 kts 69°
2026-05-01 12:58 52.37311 13.96545 8112 ft 235 kts 69°
2026-05-01 12:59 52.38473 14.01523 7842 ft 234 kts 69°
2026-05-01 12:59 52.39049 14.04002 7729 ft 233 kts 69°
2026-05-01 12:59 52.40195 14.08945 7453 ft 232 kts 69°
2026-05-01 13:00 52.41323 14.13833 7173 ft 230 kts 69°
2026-05-01 13:00 52.41971 14.16213 7026 ft 228 kts 54°
2026-05-01 13:01 52.44731 14.18340 6712 ft 234 kts 356°
2026-05-01 13:01 52.46252 14.17379 6514 ft 241 kts 324°
2026-05-01 13:01 52.47429 14.12364 5797 ft 260 kts 256°
2026-05-01 13:02 52.46836 14.09601 5569 ft 254 kts 255°
2026-05-01 13:07 52.38461 13.63429 1607 ft 144 kts 250°
2026-05-01 13:07 52.38092 13.61862 1415 ft 144 kts 251°
2026-05-01 13:07 52.37733 13.60337 1220 ft 143 kts 250°
2026-05-01 13:08 52.37375 13.58818 1032 ft 143 kts 250°
2026-05-01 13:08 52.37015 13.57294 833 ft 143 kts 250°
2026-05-01 13:08 52.36656 13.55772 652 ft 143 kts 250°
2026-05-01 13:08 52.36297 13.54252 455 ft 143 kts 250°
2026-05-01 13:09 52.35938 13.52721 244 ft 145 kts 250°
2026-05-01 13:09 52.35590 13.51259 157 ft 129 kts 248°
2026-05-01 13:09 52.35322 13.50122 154 ft 83 kts 249°
2026-05-01 13:09 52.35223 13.49611 154 ft 21 kts 276°
2026-05-01 13:10 52.35244 13.49376 154 ft 15 kts 280°
2026-05-01 13:10 52.35274 13.49249 154 ft 14 kts 319°
2026-05-01 13:10 52.35379 13.49184 154 ft 18 kts 341°
2026-05-01 13:10 52.35441 13.49263 154 ft 16 kts 86°
2026-05-01 13:11 52.35490 13.49433 154 ft 17 kts 67°
2026-05-01 13:11 52.35535 13.49619 154 ft 19 kts 68°
2026-05-01 13:11 52.35584 13.49829 154 ft 21 kts 69°
2026-05-01 13:11 52.35638 13.50058 154 ft 22 kts 69°
2026-05-01 13:12 52.35691 13.50280 154 ft 13 kts 68°
2026-05-01 13:12 52.35726 13.50422 154 ft 14 kts 69°
2026-05-01 13:12 52.35764 13.50584 154 ft 16 kts 70°
2026-05-01 13:12 52.35802 13.50738 154 ft 10 kts 60°
2026-05-01 13:13 52.35861 13.50768 154 ft 9 kts 343°
2026-05-01 13:13 52.35917 13.50733 154 ft 10 kts 339°
2026-05-01 13:13 52.35983 13.50693 154 ft 10 kts 339°
2026-05-01 13:13 52.36048 13.50651 154 ft 12 kts 339°
2026-05-01 13:14 52.36124 13.50603 154 ft 11 kts 340°
2026-05-01 13:14 52.36157 13.50655 154 ft 6 kts 70°
2026-05-01 13:14 52.36171 13.50716 155 ft 5 kts 69°
2026-05-01 13:14 52.36173 13.50725 155 ft 0 kts 69°